This is the latest recevied weather packets stored in our database for station/object WB9TLH-11. If no packets are shown the sender has not sent any weather packets the latest 1 day(s).
| Time | Temp. | Humidity | Pressure | Rain* | Wind** | Luminosity | Snow |
|---|---|---|---|---|---|---|---|
| 1778005551 | 14.44° C | 89% | 1007.7 hPa | 0.76 mm | 0.45 m/s, 150° | - | - |
| 1778005251 | 15° C | 89% | 1007.8 hPa | 1.02 mm | 0 m/s | - | - |
| 1778004951 | 15° C | 89% | 1007.6 hPa | 1.02 mm | 0 m/s | - | - |
| 1778004651 | 15° C | 89% | 1007.6 hPa | 1.27 mm | 0 m/s | - | - |
| 1778004351 | 15° C | 89% | 1007.6 hPa | 1.52 mm | 0 m/s | - | - |
| 1778004051 | 15° C | 89% | 1007.6 hPa | 1.78 mm | 0.45 m/s, 148° | - | - |
| 1778003751 | 15° C | 89% | 1007.6 hPa | 2.29 mm | 0.45 m/s, 148° | - | - |
| 1778003451 | 14.44° C | 89% | 1007.7 hPa | 2.54 mm | 0.45 m/s, 148° | - | - |
| 1778003151 | 14.44° C | 89% | 1007.7 hPa | 2.79 mm | 0.45 m/s, 148° | - | - |
| 1778002851 | 14.44° C | 89% | 1007.8 hPa | 2.79 mm | 0 m/s | - | - |
| 1778002551 | 14.44° C | 89% | 1007.8 hPa | 3.05 mm | 0 m/s | - | - |
| 1778002251 | 14.44° C | 88% | 1008.1 hPa | 2.79 mm | 0 m/s | - | - |
| 1778001951 | 14.44° C | 88% | 1008.2 hPa | 3.05 mm | 0 m/s | - | - |
| 1778001651 | 14.44° C | 87% | 1008.2 hPa | 2.79 mm | 0 m/s | - | - |
| 1778001351 | 14.44° C | 87% | 1008 hPa | 2.79 mm | 0 m/s | - | - |
| 1778001051 | 14.44° C | 87% | 1007.9 hPa | 2.54 mm | 0 m/s | - | - |
| 1778000751 | 14.44° C | 86% | 1008 hPa | 2.29 mm | 0 m/s | - | - |
| 1778000451 | 14.44° C | 86% | 1008.2 hPa | 2.03 mm | 0 m/s | - | - |
| 1778000151 | 14.44° C | 86% | 1008.2 hPa | 1.52 mm | 0 m/s | - | - |
| 1777999851 | 14.44° C | 85% | 1008.3 hPa | 1.27 mm | 0.45 m/s, 153° | - | - |
| 1777999551 | 15° C | 85% | 1008.5 hPa | 1.02 mm | 0.45 m/s, 153° | - | - |
| 1777999251 | 15° C | 84% | 1008.7 hPa | 0.76 mm | 0 m/s | - | - |
| 1777998951 | 15.56° C | 84% | 1008.7 hPa | 0.51 mm | 0 m/s | - | - |
| 1777998651 | 15.56° C | 83% | 1008.5 hPa | 0.51 mm | 0 m/s | - | - |
| 1777998361 | 15.56° C | 83% | 1008.6 hPa | 0 mm | 0 m/s | - | - |
* Rain latest hour (hover to see other rain measurements)
** Current wind speed in m/s (hover to see current wind gust speed)